Location: Alafon
(8.4500°N, 4.2333°E)
Time: 17:03:43
(UTC+00:00)

A-11 Canister half - Pass Details

Date: 15 August 2021
Orbit: 1515 x 1685 km, 47.2° (Epoch: 19 September)

Event Time Altitude Azimuth Distance (km) Brightness Sun altitude
Rises 11:19:10 0° 241° (WSW) 4,649 11.4 81.2°
Reaches altitude 10° 11:22:27 10° 249° (WSW) 3,671 11.1 81.8°
Maximum altitude 11:30:50 39° 314° (NW) 2,158 10.5 83.2°
Drops below altitude 10° 11:39:26 10° 20° (NNE) 3,745 11.3 84.2°
Sets 11:42:52 0° 28° (NNE) 4,753 11.7 84.4°
